When you browse on this site, cookies collect data to enhance your experience and personalize the content and advertising you see.
Visit our Privacy Policy to learn more. By continuing to use the site, you agree to this use of cookies and data.
  • In Germany
  • List of Countries
  • For 7 days
  • Water Temperature
  • Satellite Maps
  • Weather Map
  • Weather Widgets
  • user-avatar
    Login

    Hourly Weather Armawir

    Today, 19 July, Friday

    Time Temperature Precipitation Wind Pressure Humidity
    00:00 +27°C° 0 mm 2 mps 684 mmHg 34%
    01:00 +26°C° 0 mm 2 mps 684 mmHg 37%
    02:00 +25°C° 0 mm 2 mps 684 mmHg 40%
    03:00 +24°C° 0 mm 3 mps 684 mmHg 44%
    04:00 +25°C° 0 mm 3 mps 685 mmHg 45%
    05:00 +25°C° 0 mm 3 mps 685 mmHg 46%
    06:00 +26°C° 0 mm 3 mps 685 mmHg 47%
    07:00 +28°C° 0 mm 3 mps 686 mmHg 42%
    08:00 +30°C° 0 mm 3 mps 686 mmHg 37%
    09:00 +33°C° 0 mm 3 mps 686 mmHg 33%
    10:00 +35°C° 0 mm 2 mps 686 mmHg 29%
    11:00 +36°C° 0 mm 2 mps 687 mmHg 25%
    12:00 +38°C° 0 mm 2 mps 687 mmHg 21%
    13:00 +38°C° 0 mm 2 mps 687 mmHg 19%
    14:00 +39°C° 0 mm 2 mps 686 mmHg 18%
    15:00 +40°C° 0 mm 2 mps 686 mmHg 16%
    16:00 +39°C° 0 mm 3 mps 686 mmHg 20%
    17:00 +38°C° 0 mm 4 mps 686 mmHg 23%
    18:00 +37°C° 0 mm 5 mps 686 mmHg 27%
    19:00 +34°C° 0 mm 5 mps 687 mmHg 34%
    20:00 +30°C° 0 mm 4 mps 687 mmHg 41%
    21:00 +28°C° 0 mm 3 mps 687 mmHg 48%
    22:00 +27°C° 0 mm 3 mps 687 mmHg 51%
    23:00 +26°C° 0 mm 3 mps 687 mmHg 54%

    Tomorrow, 20 July, Saturday

    Time Temperature Precipitation Wind Pressure Humidity
    00:00 +25°C° 0 mm 3 mps 688 mmHg 57%
    01:00 +25°C° 0 mm 3 mps 688 mmHg 58%
    02:00 +24°C° 0 mm 3 mps 688 mmHg 59%
    03:00 +24°C° 0 mm 3 mps 688 mmHg 61%
    04:00 +24°C° 0 mm 3 mps 688 mmHg 59%
    05:00 +25°C° 0 mm 2 mps 688 mmHg 58%
    06:00 +25°C° 0 mm 2 mps 689 mmHg 57%
    07:00 +27°C° 0 mm 2 mps 689 mmHg 52%
    08:00 +29°C° 0 mm 2 mps 689 mmHg 47%
    09:00 +31°C° 0 mm 2 mps 689 mmHg 42%
    10:00 +32°C° 0 mm 2 mps 689 mmHg 38%
    11:00 +35°C° 0 mm 2 mps 689 mmHg 33%
    12:00 +37°C° 0 mm 2 mps 689 mmHg 28%
    13:00 +38°C° 0 mm 3 mps 689 mmHg 26%
    14:00 +39°C° 0 mm 3 mps 689 mmHg 24%
    15:00 +41°C° 0 mm 4 mps 688 mmHg 22%
    16:00 +40°C° 0 mm 4 mps 689 mmHg 24%
    17:00 +40°C° 0 mm 4 mps 689 mmHg 25%
    18:00 +38°C° 0 mm 4 mps 689 mmHg 27%
    19:00 +35°C° 0 mm 4 mps 689 mmHg 35%
    20:00 +33°C° 0 mm 4 mps 689 mmHg 43%
    21:00 +29°C° 0 mm 3 mps 689 mmHg 51%
    22:00 +28°C° 0 mm 3 mps 689 mmHg 54%
    23:00 +27°C° 0 mm 2 mps 689 mmHg 57%

    Day after tomorrow, 21 July, Sunday

    Time Temperature Precipitation Wind Pressure Humidity
    00:00 +26°C° 0 mm 2 mps 689 mmHg 60%
    01:00 +26°C° 0 mm 2 mps 689 mmHg 61%
    02:00 +25°C° 0 mm 2 mps 689 mmHg 63%
    03:00 +24°C° 0 mm 2 mps 688 mmHg 64%
    04:00 +25°C° 0 mm 2 mps 688 mmHg 62%
    05:00 +25°C° 0 mm 2 mps 689 mmHg 59%
    06:00 +26°C° 0 mm 1 mps 689 mmHg 57%
    07:00 +28°C° 0 mm 2 mps 689 mmHg 50%
    08:00 +30°C° 0 mm 2 mps 689 mmHg 43%
    09:00 +32°C° 0 mm 2 mps 689 mmHg 36%
    10:00 +35°C° 0 mm 3 mps 689 mmHg 31%
    11:00 +37°C° 0 mm 4 mps 689 mmHg 25%
    12:00 +40°C° 0 mm 4 mps 689 mmHg 20%
    13:00 +41°C° 0 mm 5 mps 689 mmHg 18%
    14:00 +42°C° 0 mm 5 mps 689 mmHg 16%
    15:00 +43°C° 0 mm 5 mps 688 mmHg 14%
    16:00 +43°C° 0 mm 5 mps 688 mmHg 16%
    17:00 +42°C° 0 mm 5 mps 688 mmHg 18%
    18:00 +42°C° 0 mm 5 mps 688 mmHg 20%
    19:00 +38°C° 0 mm 4 mps 688 mmHg 27%
    20:00 +34°C° 0 mm 4 mps 688 mmHg 34%
    21:00 +30°C° 0 mm 3 mps 688 mmHg 41%
    22:00 +29°C° 0 mm 3 mps 688 mmHg 44%
    23:00 +28°C° 0 mm 3 mps 687 mmHg 47%

    22 July, Monday

    Time Temperature Precipitation Wind Pressure Humidity
    00:00 +27°C° 0 mm 3 mps 687 mmHg 50%
    01:00 +26°C° 0 mm 3 mps 687 mmHg 52%
    02:00 +25°C° 0 mm 2 mps 687 mmHg 53%
    03:00 +25°C° 0 mm 2 mps 687 mmHg 54%
    04:00 +25°C° 0 mm 2 mps 687 mmHg 53%
    05:00 +26°C° 0 mm 2 mps 687 mmHg 52%
    06:00 +26°C° 0 mm 2 mps 687 mmHg 51%
    07:00 +29°C° 0 mm 2 mps 687 mmHg 44%
    08:00 +31°C° 0 mm 2 mps 687 mmHg 38%
    09:00 +34°C° 0 mm 2 mps 687 mmHg 32%
    10:00 +36°C° 0 mm 2 mps 687 mmHg 28%
    11:00 +38°C° 0 mm 2 mps 687 mmHg 24%
    12:00 +40°C° 0 mm 2 mps 687 mmHg 21%
    13:00 +41°C° 0 mm 2 mps 687 mmHg 19%
    14:00 +42°C° 0 mm 1 mps 687 mmHg 17%
    15:00 +43°C° 0 mm 1 mps 686 mmHg 16%
    16:00 +43°C° 0 mm 2 mps 686 mmHg 17%
    17:00 +44°C° 0 mm 3 mps 686 mmHg 18%
    18:00 +43°C° 0 mm 4 mps 686 mmHg 18%
    19:00 +40°C° 0 mm 4 mps 686 mmHg 27%
    20:00 +35°C° 0 mm 4 mps 686 mmHg 37%
    21:00 +30°C° 0 mm 4 mps 686 mmHg 46%
    22:00 +29°C° 0 mm 4 mps 686 mmHg 48%
    23:00 +29°C° 0 mm 4 mps 686 mmHg 50%

    23 July, Tuesday

    Time Temperature Precipitation Wind Pressure Humidity
    00:00 +28°C° 0 mm 4 mps 685 mmHg 52%
    01:00 +27°C° 0 mm 4 mps 685 mmHg 54%
    02:00 +26°C° 0 mm 3 mps 685 mmHg 56%
    03:00 +25°C° 0 mm 3 mps 685 mmHg 58%
    04:00 +26°C° 0 mm 3 mps 685 mmHg 57%
    05:00 +26°C° 0 mm 3 mps 685 mmHg 56%
    06:00 +27°C° 0 mm 3 mps 685 mmHg 55%
    07:00 +29°C° 0 mm 2 mps 685 mmHg 49%
    08:00 +31°C° 0 mm 2 mps 685 mmHg 43%
    09:00 +34°C° 0 mm 2 mps 686 mmHg 37%
    10:00 +35°C° 0 mm 2 mps 685 mmHg 33%
    11:00 +37°C° 0 mm 2 mps 685 mmHg 29%
    12:00 +39°C° 0 mm 2 mps 685 mmHg 25%
    13:00 +39°C° 0 mm 2 mps 685 mmHg 23%
    14:00 +40°C° 0 mm 2 mps 684 mmHg 22%
    15:00 +41°C° 0 mm 2 mps 684 mmHg 21%
    16:00 +41°C° 0 mm 4 mps 684 mmHg 24%
    17:00 +40°C° 0 mm 5 mps 684 mmHg 28%
    18:00 +39°C° 0 mm 7 mps 684 mmHg 32%
    19:00 +35°C° 0 mm 6 mps 684 mmHg 38%
    20:00 +33°C° 0 mm 4 mps 684 mmHg 44%
    21:00 +29°C° 0 mm 3 mps 685 mmHg 50%
    22:00 +28°C° 0.1 mm 3 mps 685 mmHg 52%
    23:00 +28°C° 0.1 mm 3 mps 685 mmHg 53%

    24 July, Wednesday

    Time Temperature Precipitation Wind Pressure Humidity
    00:00 +27°C° 0.1 mm 3 mps 685 mmHg 55%
    01:00 +26°C° 0 mm 2 mps 684 mmHg 56%
    02:00 +26°C° 0 mm 2 mps 684 mmHg 58%
    03:00 +25°C° 0 mm 2 mps 684 mmHg 59%
    04:00 +26°C° 0 mm 2 mps 684 mmHg 58%
    05:00 +26°C° 0 mm 1 mps 684 mmHg 57%
    06:00 +26°C° 0 mm 1 mps 685 mmHg 57%
    07:00 +28°C° 0 mm 1 mps 685 mmHg 51%
    08:00 +30°C° 0 mm 1 mps 685 mmHg 44%
    09:00 +32°C° 0 mm 1 mps 685 mmHg 38%
    10:00 +35°C° 0 mm 1 mps 685 mmHg 32%
    11:00 +37°C° 0 mm 1 mps 685 mmHg 25%
    12:00 +40°C° 0 mm 2 mps 685 mmHg 19%
    13:00 +41°C° 0 mm 2 mps 685 mmHg 16%
    14:00 +43°C° 0 mm 3 mps 685 mmHg 12%
    15:00 +45°C° 0 mm 4 mps 685 mmHg 9%
    16:00 +44°C° 0 mm 4 mps 685 mmHg 9%
    17:00 +45°C° 0 mm 5 mps 685 mmHg 9%
    18:00 +44°C° 0 mm 6 mps 685 mmHg 10%
    19:00 +40°C° 0 mm 5 mps 685 mmHg 13%
    20:00 +36°C° 0 mm 4 mps 685 mmHg 15%
    21:00 +31°C° 0 mm 3 mps 685 mmHg 18%
    22:00 +30°C° 0 mm 2 mps 685 mmHg 24%
    23:00 +29°C° 0 mm 2 mps 684 mmHg 29%
    Show more